Farmington, MO

1:04 AM CST on December 07, 2019 (GMT -0600)
Farmington Regional

Weather History for KFAM - October, 2019

Change the Weather History Date:

Saturday, October 26, 2019

  Actual Average Record
Temperature  
Mean Temperature 48 °F -  
Max Temperature 51 °F 63 °F 82 °F (2014)
Min Temperature 46 °F 44 °F 28 °F (2005)
Degree Days  
Heating Degree Days 17    
Moisture  
Dew Point 47 °F    
Average Humidity 96    
Maximum Humidity 100    
Minimum Humidity 80    
Precipitation  
Precipitation 1.18 in - - ()
Sea Level Pressure  
Sea Level Pressure 29.80 in    
Wind  
Wind Speed 9 mph (NNW)    
Max Wind Speed 14 mph    
Max Gust Speed 32 mph    
Visibility 8 miles    
Events Rain    
Averages and records for this station are not official NWS values.
T = Trace of Precipitation, MM = Missing Value Source: NWS Daily Summary

Daily Weather History Graph

Daily Weather History Graph

Search for Another Location

Airport or City:

Astronomy

Oct. 26, 2019 Rise Set
Actual Time 7:20 AM CDT 6:10 PM CDT
Civil Twilight 6:53 AM CDT 6:37 PM CDT
Nautical Twilight 6:23 AM CDT 7:07 PM CDT
Astronomical Twilight 5:52 AM CDT 7:38 PM CDT
Moon 5:19 AM CDT (10/26) 5:43 PM CDT (10/26)
Length of Visible Light 11h 43m
Length of Day
10h 49m
Waning Crescent, 3% of the Moon is Illuminated
Oct 26
Waning Crescent
Oct 27
New
Nov 4
First Quarter
Nov 12
Full
Nov 19
Last Quarter

Hourly Weather History & Observations

Time (CDT) Temp. Windchill Dew Point Humidity Pressure Visibility Wind Dir Wind Speed Gust Speed Precip Events Conditions
12:56 AM 48.0 °F - 42.1 °F 80% 30.09 in 10.0 mi NNE 9.2 mph - 0.00 in Rain Light Rain
1:56 AM 46.9 °F - 44.1 °F 90% 30.05 in 10.0 mi NNE 10.4 mph - 0.02 in Rain Light Rain
2:56 AM 46.0 °F 41.0 °F 44.1 °F 93% 30.00 in 10.0 mi NE 10.4 mph 19.6 mph 0.01 in Rain Light Rain
3:56 AM 46.9 °F - 46.0 °F 97% 29.98 in 9.0 mi NE 10.4 mph - 0.02 in Rain Light Rain
3:59 AM 46.4 °F 41.5 °F 46.4 °F 100% 29.95 in 8.0 mi NE 10.4 mph - 0.00 in Rain Light Rain
4:56 AM 46.0 °F 41.9 °F 46.0 °F 100% 29.96 in 5.0 mi North 8.1 mph - 0.09 in Rain Light Rain
5:14 AM 46.4 °F 41.5 °F 46.4 °F 100% 29.91 in 4.0 mi NNE 10.4 mph - 0.03 in Rain Rain
5:56 AM 46.9 °F - 46.0 °F 97% 29.90 in 6.0 mi NNE 12.7 mph - 0.10 in Rain Rain
6:56 AM 46.0 °F 41.9 °F 46.0 °F 100% 29.87 in 6.0 mi NNW 8.1 mph - 0.07 in Rain Rain
7:56 AM 46.9 °F - 46.0 °F 97% 29.85 in 5.0 mi North 5.8 mph - 0.11 in Rain Light Rain
8:56 AM 46.9 °F - 46.9 °F 100% 29.80 in 8.0 mi NNE 13.8 mph 19.6 mph 0.13 in Rain Light Rain
9:56 AM 48.0 °F - 48.0 °F 100% 29.77 in 6.0 mi NNE 11.5 mph 17.3 mph 0.09 in Rain Rain
10:56 AM 48.9 °F - 48.9 °F 100% 29.73 in 8.0 mi North 9.2 mph - 0.09 in Rain Rain
11:56 AM 48.9 °F - 48.9 °F 100% 29.68 in 6.0 mi North 11.5 mph - 0.08 in Rain Rain
1:34 PM 50.0 °F - 48.2 °F 94% 29.59 in 10.0 mi NNW 9.2 mph - 0.04 in Rain Light Rain
1:56 PM 50.0 °F - 48.9 °F 96% 29.63 in 5.0 mi WNW 10.4 mph - 0.12 in Rain Heavy Rain
2:56 PM 50.0 °F - 48.9 °F 96% 29.61 in 10.0 mi WNW 10.4 mph 19.6 mph 0.16 in Rain Light Rain
3:56 PM 50.0 °F - 48.9 °F 96% 29.52 in 10.0 mi NW 10.4 mph 32.2 mph 0.00 in Rain Light Rain
4:56 PM 50.0 °F - 48.0 °F 93% 29.65 in 10.0 mi West 10.4 mph - 0.00 in   Overcast
5:56 PM 48.9 °F - 48.0 °F 97% 29.69 in 6.0 mi West 4.6 mph - 0.02 in Rain Light Rain
6:56 PM 48.0 °F - 46.9 °F 96% 29.70 in 10.0 mi WNW 5.8 mph - 0.06 in Rain Light Rain
7:56 PM 48.0 °F - 46.9 °F 96% 29.73 in 10.0 mi West 6.9 mph - 0.01 in   Overcast
8:56 PM 48.0 °F - 46.9 °F 96% 29.75 in 10.0 mi West 4.6 mph - 0.00 in   Overcast
9:56 PM 48.9 °F - 46.9 °F 93% 29.80 in 10.0 mi Variable 4.6 mph - N/A   Overcast
10:56 PM 48.0 °F - 46.9 °F 96% 29.84 in 10.0 mi West 4.6 mph - N/A   Overcast
11:56 PM 48.9 °F - 46.9 °F 93% 29.86 in 10.0 mi West 5.8 mph - N/A   Overcast